KB3AWQ Weather Reports


time (UTC)temp
C
wind
direction
speed
KPH
gust
KPH
rain 1hr
cm
rain 24hr
cm
rain mn
cm
humidity
%
barometer
mb
20260504050427 5 0 0.0 0.0 0.00 0.00 0.00 83 1012.7
20260504045929 5 0 0.0 0.0 0.00 0.00 0.00 83 1012.8
20260504045426 5 0 0.0 0.0 0.00 0.00 0.00 83 1012.9
20260504044926 5 0 0.0 0.0 0.00 0.00 0.00 83 1012.9
20260504044426 5 0 0.0 0.0 0.00 0.00 0.00 82 1012.9
20260504043926 5 205 0.0 1.6 0.00 0.00 0.00 82 1012.9
20260504043426 5 0 0.0 0.0 0.00 0.00 0.00 82 1012.8
20260504042926 5 0 0.0 0.0 0.00 0.00 0.00 81 1012.8
20260504042427 5 315 0.0 1.6 0.00 0.00 0.00 81 1012.8
20260504041926 5 331 0.0 1.6 0.00 0.00 0.00 80 1012.7
20260504041426 5 0 0.0 0.0 0.00 0.00 0.00 80 1012.7
20260504040926 5 0 0.0 0.0 0.00 0.00 0.00 80 1012.7
20260504040426 6 0 0.0 0.0 0.00 0.00 0.00 80 1012.7
20260504035926 6 323 0.0 0.0 0.00 0.00 0.00 79 1012.6
20260504035426 6 0 0.0 0.0 0.00 0.00 0.00 79 1012.6
20260504034926 6 0 0.0 0.0 0.00 0.00 0.00 79 1012.6
20260504034427 6 0 0.0 0.0 0.00 0.00 0.00 79 1012.6
20260504033926 6 0 0.0 0.0 0.00 0.00 0.00 79 1012.6
20260504033426 6 326 0.0 1.6 0.00 0.00 0.00 78 1012.5
20260504032926 6 0 0.0 0.0 0.00 0.00 0.00 77 1012.6
20260504032427 6 0 0.0 0.0 0.00 0.00 0.00 78 1012.7
20260504031926 6 0 0.0 0.0 0.00 0.00 0.00 76 1012.6
20260504031426 7 0 0.0 0.0 0.00 0.00 0.00 75 1012.6
20260504030926 7 0 0.0 0.0 0.00 0.00 0.00 76 1012.6
20260504030428 7 312 0.0 1.6 0.00 0.00 0.00 75 1012.6
20260504025927 7 0 0.0 0.0 0.00 0.00 0.00 72 1012.6
20260504025426 7 0 0.0 0.0 0.00 0.00 0.00 72 1012.6
20260504024926 7 0 0.0 0.0 0.00 0.00 0.00 71 1012.7
20260504024426 8 0 0.0 0.0 0.00 0.00 0.00 72 1012.6
20260504023926 8 0 0.0 0.0 0.00 0.00 0.00 70 1012.7
20260504023426 8 0 0.0 0.0 0.00 0.00 0.00 68 1012.7
20260504022926 8 0 0.0 0.0 0.00 0.00 0.00 68 1012.6
20260504022426 8 0 0.0 0.0 0.00 0.00 0.00 67 1012.6
20260504021926 8 0 0.0 0.0 0.00 0.00 0.00 67 1012.6
20260504021426 8 0 0.0 0.0 0.00 0.00 0.00 67 1012.6
20260504020927 8 0 0.0 0.0 0.00 0.00 0.00 65 1012.5
20260504020427 9 0 0.0 0.0 0.00 0.00 0.00 65 1012.6
20260504015926 9 0 0.0 0.0 0.00 0.00 0.00 65 1012.5
20260504015427 10 0 0.0 0.0 0.00 0.00 0.00 65 1012.4
20260504014927 10 0 0.0 0.0 0.00 0.00 0.00 60 1012.5
20260504014427 10 0 0.0 0.0 0.00 0.00 0.00 59 1012.5
20260504013927 10 0 0.0 0.0 0.00 0.00 0.00 58 1012.5
20260504013426 10 0 0.0 0.0 0.00 0.00 0.00 58 1012.5
20260504012926 10 0 0.0 0.0 0.00 0.00 0.00 55 1012.5
20260504012427 11 0 0.0 0.0 0.00 0.00 0.00 55 1012.4
20260504011927 11 0 0.0 0.0 0.00 0.00 0.00 55 1012.3
20260504011427 11 0 0.0 0.0 0.00 0.00 0.00 56 1012.3
20260504010932 11 0 0.0 0.0 0.00 0.00 0.00 55 1012.3
20260504010427 11 0 0.0 0.0 0.00 0.00 0.00 55 1012.2
20260504005926 11 0 0.0 0.0 0.00 0.00 0.00 54 1012.2
20260504005427 11 0 0.0 0.0 0.00 0.00 0.00 53 1012.2
20260504004926 12 0 0.0 0.0 0.00 0.00 0.00 51 1012.1
20260504004427 12 0 0.0 0.0 0.00 0.00 0.00 51 1012.1
20260504003926 12 0 0.0 0.0 0.00 0.00 0.00 50 1012.0
20260504003427 12 263 0.0 3.2 0.00 0.00 0.00 49 1012.0
20260504002926 12 0 0.0 0.0 0.00 0.00 0.00 49 1012.0
20260504002427 13 252 0.0 1.6 0.00 0.00 0.00 47 1011.9
20260504001926 13 0 0.0 0.0 0.00 0.00 0.00 47 1011.9
20260504001426 13 237 0.0 3.2 0.00 0.00 0.00 45 1011.9
20260504000927 13 235 0.0 0.0 0.00 0.00 0.00 45 1011.9
20260504000426 13 230 0.0 0.0 0.00 0.00 0.00 46 1011.9
20260503235928 13 199 0.0 3.2 0.00 0.00 0.00 44 1011.8
20260503235426 13 225 1.6 3.2 0.00 0.00 0.00 43 1011.8
20260503234926 14 190 0.0 1.6 0.00 0.00 0.00 44 1011.8
20260503234426 14 197 0.0 1.6 0.00 0.00 0.00 43 1011.8
20260503233927 14 157 0.0 3.2 0.00 0.00 0.00 43 1011.7
20260503233426 14 198 1.6 3.2 0.00 0.00 0.00 42 1011.7
20260503232926 15 199 0.0 3.2 0.00 0.00 0.00 42 1011.7
20260503232426 15 223 3.2 4.8 0.00 0.00 0.00 42 1011.7
20260503231926 15 195 1.6 3.2 0.00 0.00 0.00 42 1011.6
20260503231426 15 164 0.0 1.6 0.00 0.00 0.00 42 1011.7
20260503230926 15 201 0.0 1.6 0.00 0.00 0.00 41 1011.6
20260503230426 15 174 1.6 3.2 0.00 0.00 0.00 41 1011.7
20260503225926 15 160 1.6 3.2 0.00 0.00 0.00 41 1011.6
20260503225428 15 143 1.6 4.8 0.00 0.00 0.00 42 1011.7
20260503224926 15 214 1.6 4.8 0.00 0.00 0.00 39 1011.7
20260503224426 15 191 0.0 3.2 0.00 0.00 0.00 41 1011.7
20260503223926 15 205 0.0 3.2 0.00 0.00 0.00 41 1011.6
20260503223426 15 159 1.6 3.2 0.00 0.00 0.00 40 1011.7
20260503222926 15 205 1.6 4.8 0.00 0.00 0.00 39 1011.7
20260503222427 15 216 1.6 4.8 0.00 0.00 0.00 39 1011.7
20260503221927 15 193 1.6 3.2 0.00 0.00 0.00 40 1011.7
20260503221427 15 194 1.6 4.8 0.00 0.00 0.00 39 1011.6
20260503220927 15 209 1.6 3.2 0.00 0.00 0.00 40 1011.7
20260503220427 16 207 1.6 4.8 0.00 0.00 0.00 39 1011.7
20260503215926 16 230 1.6 3.2 0.00 0.00 0.00 39 1011.7
20260503215426 15 224 4.8 8.0 0.00 0.00 0.00 38 1011.7
20260503214926 15 202 1.6 3.2 0.00 0.00 0.00 39 1011.7
20260503214426 16 205 1.6 4.8 0.00 0.00 0.00 39 1011.7
20260503213926 16 218 3.2 4.8 0.00 0.00 0.00 38 1011.6
20260503213432 16 238 4.8 8.0 0.00 0.00 0.00 38 1011.6
20260503212926 16 215 3.2 6.4 0.00 0.00 0.00 39 1011.5
20260503212427 16 231 1.6 3.2 0.00 0.00 0.00 39 1011.5
20260503211926 16 197 3.2 9.7 0.00 0.00 0.00 38 1011.5
20260503211426 16 237 3.2 6.4 0.00 0.00 0.00 39 1011.4
20260503210928 16 204 1.6 4.8 0.00 0.00 0.00 39 1011.5
20260503210427 15 231 1.6 4.8 0.00 0.00 0.00 39 1011.5
20260503205926 15 188 1.6 3.2 0.00 0.00 0.00 39 1011.5
20260503205426 15 224 3.2 6.4 0.00 0.00 0.00 38 1011.5
20260503204926 16 206 1.6 3.2 0.00 0.00 0.00 40 1011.5
20260503204427 16 193 3.2 8.0 0.00 0.00 0.00 39 1011.6
20260503203926 16 212 3.2 6.4 0.00 0.00 0.00 38 1011.5
20260503203426 16 245 3.2 6.4 0.00 0.00 0.00 38 1011.5
20260503202926 16 254 1.6 3.2 0.00 0.00 0.00 38 1011.6
20260503202426 16 246 0.0 3.2 0.00 0.00 0.00 39 1011.6
20260503201927 16 235 1.6 4.8 0.00 0.00 0.00 39 1011.6
20260503201427 16 251 1.6 4.8 0.00 0.00 0.00 38 1011.7
20260503200927 16 223 4.8 9.7 0.00 0.00 0.00 39 1011.8
20260503200427 16 230 3.2 12.9 0.00 0.00 0.00 39 1011.9
20260503195926 16 234 0.0 3.2 0.00 0.00 0.00 40 1012.0
20260503195426 16 229 1.6 4.8 0.00 0.00 0.00 40 1012.0
20260503194926 16 248 3.2 8.0 0.00 0.00 0.00 37 1011.9
20260503194427 16 240 3.2 6.4 0.00 0.00 0.00 39 1012.0
20260503193926 16 204 1.6 3.2 0.00 0.00 0.00 41 1012.1
20260503193426 16 228 3.2 6.4 0.00 0.00 0.00 39 1012.1
20260503192926 16 212 3.2 6.4 0.00 0.00 0.00 38 1012.2
20260503192426 16 239 1.6 4.8 0.00 0.00 0.00 38 1012.2
20260503191926 16 239 4.8 9.7 0.00 0.00 0.00 37 1012.3
20260503191426 16 218 1.6 4.8 0.00 0.00 0.00 40 1012.3
20260503190926 16 254 1.6 3.2 0.00 0.00 0.00 39 1012.4
20260503190426 16 229 3.2 6.4 0.00 0.00 0.00 39 1012.5
20260503185926 16 221 3.2 6.4 0.00 0.00 0.00 38 1012.5
20260503185427 16 197 1.6 6.4 0.00 0.00 0.00 40 1012.5
20260503184927 15 239 1.6 3.2 0.00 0.00 0.00 41 1012.6
20260503184426 15 224 3.2 8.0 0.00 0.00 0.00 40 1012.6
20260503183928 15 216 1.6 3.2 0.00 0.00 0.00 40 1012.7
20260503183426 15 245 1.6 6.4 0.00 0.00 0.00 41 1012.6
20260503182926 15 197 1.6 4.8 0.00 0.00 0.00 39 1012.7
20260503182426 15 266 3.2 9.7 0.00 0.00 0.00 41 1012.7
20260503181926 15 239 3.2 6.4 0.00 0.00 0.00 39 1012.7
20260503181426 15 252 3.2 6.4 0.00 0.00 0.00 41 1012.7
20260503180927 15 231 1.6 3.2 0.00 0.00 0.00 40 1012.6
20260503180427 15 235 1.6 6.4 0.00 0.00 0.00 39 1012.6
20260503175926 15 234 3.2 9.7 0.00 0.00 0.00 39 1012.8
20260503175426 15 230 1.6 4.8 0.00 0.00 0.00 39 1012.7
20260503174926 15 207 1.6 6.4 0.00 0.00 0.00 40 1012.9
20260503174426 15 267 3.2 9.7 0.00 0.00 0.00 41 1012.9
20260503173926 15 219 3.2 6.4 0.00 0.00 0.00 38 1012.9
20260503173428 14 211 1.6 6.4 0.00 0.00 0.00 41 1013.0
20260503172926 14 178 1.6 6.4 0.00 0.00 0.00 42 1013.1
20260503172428 13 173 1.6 3.2 0.00 0.00 0.00 42 1013.2
20260503171926 13 156 0.0 3.2 0.00 0.00 0.00 45 1013.3
20260503171426 13 203 1.6 3.2 0.00 0.00 0.00 43 1013.4
20260503170926 14 187 3.2 4.8 0.00 0.00 0.00 41 1013.3
20260503170426 15 241 1.6 4.8 0.00 0.00 0.00 39 1013.7
20260503150926 10 290 1.6 3.2 0.00 0.00 0.00 50 1014.8
20260503150426 11 201 3.2 4.8 0.00 0.00 0.00 48 1014.8
20260503130927 9 212 1.6 3.2 0.00 0.00 0.00 53 1015.4
20260503130427 9 210 1.6 4.8 0.00 0.00 0.00 52 1015.4
20260503110427 4 214 0.0 1.6 0.00 0.00 0.00 78 1015.0
20260503090426 3 0 0.0 0.0 0.00 0.00 0.00 80 1014.2
20260503081426 3 0 0.0 0.0 0.00 0.00 0.00 84 1013.9
20260503080927 3 0 0.0 0.0 0.00 0.00 0.00 84 1013.9
20260503080426 3 0 0.0 0.0 0.00 0.00 0.00 83 1013.9
20260503072926 4 0 0.0 0.0 0.00 0.00 0.00 80 1013.7
20260503072426 4 0 0.0 0.0 0.00 0.00 0.00 80 1013.7
20260503071926 4 0 0.0 0.0 0.00 0.00 0.00 79 1013.7
20260503071427 4 0 0.0 0.0 0.00 0.00 0.00 79 1013.7
20260503070926 5 0 0.0 0.0 0.00 0.00 0.00 78 1013.7
20260503070427 5 0 0.0 0.0 0.00 0.00 0.00 78 1013.7
20260503054926 6 0 0.0 0.0 0.00 0.00 0.00 72 1013.9
20260503054426 6 292 0.0 1.6 0.00 0.00 0.00 72 1013.9
20260503053926 6 231 0.0 1.6 0.00 0.00 0.00 72 1013.9
20260503053426 6 0 0.0 0.0 0.00 0.00 0.00 71 1014.0